Regional Weather Roundup
Issued by NWS

Home | Current Version | Previous Version | Graphics & Text | Print | Product List | Glossary Off
Versions: 1 2 3 4 5 6 7 8 9 10 11 12 13 14 15 16 17 18 19 20 21 22 23 24 25 26 27 28 29 30 31 32 33 34 35 36 37 38 39 40 41 42 43 44 45 46 47 48 49 50

970
ASUS43 KLSX 102307
RWRMO

WEATHER SUMMARY FOR MISSOURI
NATIONAL WEATHER SERVICE SPRINGFIELD MO
500 PM CST WED FEB 10 2016

NOTE: "FAIR" INDICATES FEW OR NO CLOUDS BELOW 12,000 FEET WITH NO
       SIGNIFICANT WEATHER AND/OR OBSTRUCTIONS TO VISIBILITY.
       CURRENT SKY AND/OR WEATHER CONDITIONS ARE NOT AVAILABLE FOR
       CHILLICOTHE AND FARMINGTON.

MOZ001>031-035>038-043-044-053-054-110000-
...NORTHERN AND WESTERN MISSOURI...

CITY           SKY/WX    TMP DP  RH WIND       PRES   REMARKS
KANSAS CTY INT PTCLDY    47  23  38 SE6       29.93R
KANSAS C DTWN  CLEAR     49  21  33 S3        29.94R
LEE`S SUMMIT   CLEAR     47  20  34 S3        29.94R
ST JOSEPH      CLEAR     46  20  35 E8        29.93R
CHILLICOTHE      N/A     30  21  69 SE9       30.02R WCI  22
KIRKSVILLE     CLOUDY    21  16  81 E9        30.06R WCI  11

$$
MOZ066>068-077>081-088>096-101>105-110000-
...SOUTHWEST MISSOURI...

CITY           SKY/WX    TMP DP  RH WIND       PRES   REMARKS
SPRINGFIELD    CLEAR     50  20  30 S10       29.93F
JOPLIN         CLEAR     52  23  32 SW13      29.95S

$$
MOZ032>034-039>042-045>050-055>058-069>072-110000-
...CENTRAL MISSOURI...

CITY           SKY/WX    TMP DP  RH WIND       PRES   REMARKS
COLUMBIA       CLEAR     27  19  72 E10       30.04S WCI  17
JEFFERSON CITY CLEAR     28  20  71 E9        30.06S WCI  19
ROLLA          PTCLDY    27  20  75 E12       30.01S WCI  17
SEDALIA        CLEAR     35  20  54 E10       30.00R WCI  27
WHITEMAN AFB   PTCLDY    42  19  39 SW7       29.96R
WARRENSBURG    CLEAR     43  19  39 SE5       29.97R
OSAGE BEACH    CLEAR     45  18  33 CALM      29.98S

$$
MOZ051-052-059>065-110000-
...EAST CENTRAL MISSOURI...

CITY           SKY/WX    TMP DP  RH WIND       PRES   REMARKS
ST LOUIS INTL  LGT SNOW  23  16  74 SW5       30.14S WCI  17
SPIRIT OF STL  CLOUDY    22  18  85 CALM      30.13S
ST CHARLES     LGT SNOW  21  18  88 S3        30.14S FOG

$$
MOZ072>076-082>087-097>100-106>115-110000-
...SOUTH CENTRAL AND SOUTHEAST MISSOURI...

CITY           SKY/WX    TMP DP  RH WIND       PRES   REMARKS
CAPE GIRARDEAU CLOUDY    24  19  81 SE3       30.17S
FARMINGTON     CLOUDY    25  19  78 SE6       30.11S WCI  18
POPLAR BLUFF   PTCLDY    31  12  45 E6        30.13S WCI  25
WEST PLAINS    CLEAR     42  14  32 S7        30.00F

$$



USA.gov is the U.S. government's official web portal to all federal, state and local government web resources and services.